Tracking 22438 objects as of 24-Feb-2021
HD Live streaming from Space Station
objects crossing your sky now

BREEZE-M DEB

Track BREEZE-M DEB now!
10-day predictions


NORAD ID: 36959
Int'l Code: 2006-006CR
Perigee: 366.2 km
Apogee: 8,971.8 km
Inclination: 51.9 °
Period: 192.4 minutes
Semi major axis: 11039 km
RCS: 0.0036 m2 (small)
Launch date: February 28, 2006
Source: Commonwealth of Independent States (former USSR) (CIS)
Launch site: TYURATAM MISSILE AND SPACE COMPLEX (TTMTR)

Note: This is SATELLITE DEBRIS
aabbcc
Your satellite tracking list
Your tracking list is empty




NASA's NSSDC Master Catalog

Two Line Element Set (TLE):
1 36959U 06006CR  21050.37388843  .00005022  00000-0  11088-2 0  9995
2 36959  51.8521 286.1773 3897464 241.4479 328.9952  7.48428590297195
Source of the keplerian elements: AFSPC